www.pogodaiklimat.ru

Погода и климат >> Архив погоды >> Австралия >> Западная Австралия >> Кунунарра


ПОГОДА в Кунунарре

  • Прогноз погоды в Кунунарре
  • Монитор погоды в Кунунарре

АРХИВ ПОГОДЫ в Кунунарре

Время (UTC), дата Ветер
(напр.,м/с)
 
Видим.   Явления Облачность Т
(С)
Тd
(С)
f
(%)
Тe
(С)
Тes
(С)
Комфортность P
(гПа)
Po
(гПа)
Тmin
(С)
Tmax
(С)
R
(мм)
R24
(мм)
S
(см)
07 19.03 СЗ 4 н/о н/о +36.6 +20.0 38 +42 +42 опасность
перегрева
1004.5 999.5
09 19.03 СЗ 4 н/о н/о +35.6 +19.9 40 +41 +41 опасность
перегрева
1004.8 999.8
10 19.03 С 3 н/о н/о +31.4 +22.7 60 +41 +41 опасность
перегрева
1005.9 1000.9
12 19.03 С 4 н/о н/о +28.7 +22.4 69 +38 +38 очень
душно
1007.5 1002.5
13 19.03 С 3 н/о н/о +28.3 +23.7 76 +39 +39 очень
душно
1008.4 1003.4 +38.0
15 19.03 С 2 н/о н/о +27.2 +24.5 85 +38 +38 очень
душно
1008.0 1003.0
16 19.03 С 3 н/о н/о +26.5 +24.2 87 +37 +37 очень
душно
1007.2 1002.2
18 19.03 штиль 0 н/о н/о +25.7 +23.9 90 +35 +35 очень
душно
1005.7 1000.7
19 19.03 С 3 н/о н/о +26.0 +24.6 92 +37 +37 очень
душно
1005.9 1000.9
21 19.03 С 1 н/о н/о +25.0 +23.8 93 +34 +34 очень
душно
1007.0 1002.0
22 19.03 С 1 9000 м н/о +25.3 +23.9 92 +35 +35 очень
душно
1007.6 1002.6
00 20.03 З 2 н/о н/о +31.2 +24.1 66 +43 +43 опасность
перегрева
1009.2 1004.2
01 20.03 СЗ 4 н/о н/о +33.0 +23.3 57 +44 +44 опасность
перегрева
1009.2 1004.2 +24.8
03 20.03 СЗ 5 н/о н/о +35.8 +21.6 44 +44 +44 опасность
перегрева
1008.2 1003.2
04 20.03 З 3 н/о н/о +36.1 +19.5 38 +41 +41 опасность
перегрева
1007.1 1002.1
06 20.03 СЗ 4 н/о н/о +37.3 +19.3 35 +42 +42 опасность
перегрева
1005.5 1000.5
07 20.03 СЗ 3 н/о н/о +37.7 +18.2 32 +41 +41 опасность
перегрева
1005.2 1000.2
09 20.03 СЗ 4 н/о н/о +35.5 +20.2 41 +42 +42 опасность
перегрева
1005.4 1000.4
10 20.03 С 3 9000 м н/о +32.1 +21.3 53 +40 +40 очень
душно
1006.2 1001.2
12 20.03 С 4 н/о н/о +29.2 +22.4 67 +38 +38 очень
душно
1007.9 1002.9
13 20.03 С 4 н/о н/о +28.7 +24.0 76 +40 +40 очень
душно
1008.2 1003.2 +38.4
15 20.03 С 3 н/о н/о +27.8 +25.0 85 +40 +40 очень
душно
1007.4 1002.4
16 20.03 штиль 0 н/о н/о +27.3 +24.9 87 +39 +39 очень
душно
1006.7 1001.7
18 20.03 штиль 0 н/о н/о +26.1 +24.1 89 +36 +36 очень
душно
1005.8 1000.8
19 20.03 С 3 н/о н/о +25.8 +24.2 91 +36 +36 очень
душно
1005.8 1000.8
21 20.03 СЗ 4 н/о н/о +26.7 +24.0 85 +37 +37 очень
душно
1006.6 1001.6
22 20.03 В 1 8000 м н/о +26.0 +24.0 89 +36 +36 очень
душно
1007.2 1002.2
00 21.03 ЮЗ 4 н/о н/о +32.1 +22.5 57 +42 +42 опасность
перегрева
1008.4 1003.4
01 21.03 ЮЗ 5 н/о н/о +33.8 +22.6 52 +43 +43 опасность
перегрева
1008.3 1003.3 +25.7
03 21.03 Ю 4 н/о н/о +36.9 +21.1 40 +44 +44 опасность
перегрева
1006.6 1001.6
04 21.03 ЮЗ 3 н/о н/о +38.0 +18.9 33 +42 +42 опасность
перегрева
1005.5 1000.5
06 21.03 СЗ 3 н/о н/о +39.2 +20.4 34 +45 +45 опасность
перегрева
1003.8 998.8
07 21.03 Ю 2 н/о н/о +39.6 +18.8 30 +44 +44 опасность
перегрева
1003.2 998.2
09 21.03 С 3 н/о н/о +37.1 +21.6 41 +45 +45 опасность
перегрева
1002.9 997.9
10 21.03 СЗ 3 н/о н/о +34.0 +21.1 47 +41 +41 опасность
перегрева
1003.5 998.5
12 21.03 С 4 н/о н/о +32.1 +21.9 55 +41 +41 опасность
перегрева
1005.1 1000.1
13 21.03 С 2 н/о н/о +30.0 +23.2 67 +40 +40 очень
душно
1005.6 1000.6 +40.4
15 21.03 СЗ 4 н/о н/о +30.8 +24.2 68 +43 +43 опасность
перегрева
1005.9 1000.9
16 21.03 С 4 н/о н/о +29.4 +24.3 74 +41 +41 опасность
перегрева
1005.5 1000.5
18 21.03 штиль 0 н/о н/о +27.6 +24.0 81 +38 +38 очень
душно
1005.0 1000.0
22 21.03 Ю 2 8000 м н/о +26.6 +22.9 80 +35 +35 очень
душно
1005.9 1000.9
01 22.03 ЮЗ 6 н/о н/о +34.2 +21.6 48 +42 +42 опасность
перегрева
1006.7 1001.7 +25.9
03 22.03 Ю 3 н/о н/о +37.4 +21.1 39 +44 +44 опасность
перегрева
1005.3 1000.3
04 22.03 В 2 н/о н/о +38.5 +19.8 34 +44 +44 опасность
перегрева
1004.1 999.1
06 22.03 ЮВ 4 н/о н/о +39.8 +16.7 26 +42 +42 опасность
перегрева
1002.3 997.3
07 22.03 В 3 н/о н/о +40.1 +15.7 24 +42 +42 опасность
перегрева
1001.8 996.8
09 22.03 С 3 н/о н/о +36.6 +20.4 39 +43 +43 опасность
перегрева
1001.7 996.7
10 22.03 С 4 н/о н/о +33.7 +21.5 49 +42 +42 опасность
перегрева
1002.4 997.4
12 22.03 СЗ 7 н/о н/о +33.0 +22.7 55 +43 +43 опасность
перегрева
1004.6 999.6
13 22.03 З 4 н/о н/о +33.0 +19.5 45 +39 +39 очень
душно
1005.5 1000.5 +40.8
15 22.03 З 2 н/о н/о +30.4 +19.4 52 +36 +36 очень
душно
1005.0 1000.0
16 22.03 С 2 н/о н/о +30.3 +19.3 52 +36 +36 очень
душно
1004.8 999.8
18 22.03 СВ 2 н/о н/о +26.5 +20.8 71 +33 +33 очень
душно
1003.8 998.8
19 22.03 СЗ 2 н/о н/о +25.2 +20.9 77 +32 +32 очень
душно
1003.8 998.8
21 22.03 С 2 н/о н/о +25.2 +21.5 80 +32 +32 очень
душно
1004.5 999.5
22 22.03 СВ 2 н/о н/о +25.7 +21.8 79 +33 +33 очень
душно
1004.6 999.6
00 23.03 З 4 н/о н/о +32.7 +20.2 48 +39 +39 очень
душно
1005.9 1000.9
01 23.03 ЮЗ 4 н/о н/о +34.0 +21.4 48 +42 +42 опасность
перегрева
1006.2 1001.2 +25.0
03 23.03 ЮЗ 4 н/о н/о +36.2 +21.2 42 +44 +44 опасность
перегрева
1004.7 999.7
04 23.03 З 2 н/о н/о +36.8 +20.6 39 +43 +43 опасность
перегрева
1004.1 999.1
06 23.03 З 4 н/о н/о +38.5 +19.4 33 +43 +43 опасность
перегрева
1002.2 997.2
07 23.03 СЗ 4 н/о 1/0 2000 м
[]
+38.3 +21.5 38 +46 +50 опасность
перегрева
1001.0 996.1
09 23.03 СЗ 5 н/о н/о +36.7 +21.7 42 +45 +45 опасность
перегрева
1000.8 995.9
10 23.03 СЗ 8 н/о 10/0
[]
+34.9 +22.9 50 +45 +45 опасность
перегрева
1002.7 997.7
12 23.03 СВ 6 н/о н/о +26.7 +21.5 73 +34 +34 очень
душно
1007.4 1002.4
13 23.03 З 5 9000 м туман местами 10/0
[]
+25.6 +22.7 84 +34 +34 очень
душно
1005.8 1000.8 +39.8
15 23.03 З 2 н/о н/о +26.8 +23.1 80 +36 +36 очень
душно
1005.6 1000.6
16 23.03 С 1 н/о {туман} 10/0
[]
+26.0 +23.1 84 +35 +35 очень
душно
1005.2 1000.2
18 23.03 С 3 н/о н/о +25.5 +24.1 92 +35 +35 очень
душно
1004.8 999.8
19 23.03 С 2 н/о {туман} 10/0
[]
+25.6 +24.0 91 +35 +35 очень
душно
1004.6 999.6
21 23.03 С 1 н/о н/о +25.4 +23.8 91 +35 +35 очень
душно
1004.8 999.8
22 23.03 штиль 0 н/о н/о +25.5 +23.9 91 +35 +35 очень
душно
1005.5 1000.5
00 24.03 Ю 2 н/о н/о +29.5 +23.9 72 +41 +41 опасность
перегрева
1006.9 1001.9
01 24.03 З 6 н/о туман местами н/о +32.7 +23.3 58 +43 +43 опасность
перегрева
1007.1 1002.1 +25.4
03 24.03 З 5 н/о н/о +33.6 +21.4 49 +41 +41 опасность
перегрева
1006.5 1001.5
04 24.03 ЮЗ 4 н/о 1/0
[]
+35.0 +22.0 47 +44 +56 опасность
перегрева
1005.3 1000.3
06 24.03 ЮЗ 4 н/о н/о +35.5 +21.4 44 +43 +43 опасность
перегрева
1003.7 998.7
07 24.03 ЮЗ 4 н/о н/о +35.7 +21.2 43 +43 +43 опасность
перегрева
1003.4 998.4
09 24.03 Ю 2 н/о н/о +35.0 +22.0 47 +44 +44 опасность
перегрева
1004.0 999.0
10 24.03 штиль 0 н/о 4/0
[]
+32.0 +24.1 63 +44 +44 опасность
перегрева
1004.9 999.9
12 24.03 СЗ 4 н/о н/о +31.0 +21.2 56 +39 +39 очень
душно
1006.1 1001.1
13 24.03 С 2 н/о 6/0 2000 м
[]
+29.7 +22.2 64 +39 +39 очень
душно
1006.7 1001.7 +36.7
15 24.03 В 1 н/о н/о +28.4 +22.2 69 +37 +37 очень
душно
1006.8 1001.8
16 24.03 СВ 1 н/о н/о +27.8 +22.7 74 +37 +37 очень
душно
1006.6 1001.6
18 24.03 СЗ 3 н/о н/о +26.7 +23.0 80 +36 +36 очень
душно
1006.5 1001.5
19 24.03 С 2 н/о 10/0
[]
+26.9 +23.2 80 +36 +36 очень
душно
1006.9 1001.9
21 24.03 С 3 н/о н/о +26.1 +23.0 83 +35 +35 очень
душно
1007.4 1002.4
22 24.03 С 2 н/о н/о +26.2 +23.3 84 +35 +35 очень
душно
1008.1 1003.1
00 25.03 ЮЗ 4 н/о н/о +32.0 +22.7 58 +42 +42 опасность
перегрева
1008.8 1003.8
01 25.03 ЮЗ 6 н/о н/о +33.3 +21.5 50 +41 +41 опасность
перегрева
1009.0 1004.0 +25.5
03 25.03 З 4 н/о н/о +36.1 +20.4 40 +42 +42 опасность
перегрева
1008.0 1003.0
04 25.03 З 3 н/о н/о +37.1 +20.0 37 +43 +43 опасность
перегрева
1006.9 1001.9
06 25.03 ЮВ 5 н/о н/о +37.6 +19.5 35 +43 +43 опасность
перегрева
1005.9 1000.9
07 25.03 В 3 н/о 1/0
[]
+36.1 +20.8 41 +43 +48 опасность
перегрева
1005.3 1000.3
09 25.03 С 4 н/о н/о +34.6 +20.2 43 +41 +41 опасность
перегрева
1006.1 1001.1
10 25.03 С 3 н/о н/о +32.1 +21.0 52 +40 +40 очень
душно
1007.1 1002.1
12 25.03 С 5 н/о н/о +30.3 +24.7 72 +43 +43 опасность
перегрева
1008.8 1003.8
13 25.03 С 3 н/о н/о +29.4 +24.5 75 +42 +42 опасность
перегрева
1009.3 1004.3 +39.0
15 25.03 С 2 н/о н/о +28.4 +24.8 81 +41 +41 опасность
перегрева
1008.6 1003.6
16 25.03 С 1 н/о н/о +28.0 +25.2 85 +41 +41 опасность
перегрева
1008.5 1003.5
18 25.03 штиль 0 н/о н/о +27.6 +25.6 89 +41 +41 опасность
перегрева
1008.0 1003.0
19 25.03 штиль 0 7000 м н/о +27.2 +25.2 89 +39 +39 очень
душно
1008.2 1003.2
21 25.03 Ю 2 н/о н/о +27.4 +25.2 88 +40 +40 очень
душно
1008.7 1003.7
22 25.03 СВ 1 7000 м н/о +27.0 +25.4 91 +39 +39 очень
душно
1009.9 1004.9
00 26.03 Ю 2 н/о н/о +30.4 +25.2 74 +44 +44 опасность
перегрева
1011.1 1006.1
01 26.03 ЮВ 4 н/о н/о +32.9 +22.0 53 +42 +42 опасность
перегрева
1010.7 1005.7 +26.9
03 26.03 Ю 5 н/о н/о +34.0 +21.8 49 +42 +42 опасность
перегрева
1009.8 1004.8
04 26.03 ЮВ 3 н/о 9/0
[]
+34.6 +21.3 46 +42 +51 опасность
перегрева
1008.6 1003.6
06 26.03 В 2 н/о н/о +35.5 +20.6 42 +42 +42 опасность
перегрева
1007.2 1002.2
07 26.03 С 3 н/о 6/0
[]
+35.5 +21.7 45 +44 +48 опасность
перегрева
1007.3 1002.3

 

Местоположение метеостанции Кунунарра (Западная Австралия, Австралия): широта -15.78 долгота 128.71 высота над уровнем моря 44 м.

В архиве по умолчанию представлена погода в Кунунарре за последнюю неделю. Архивные данные за месяц целиком и за предыдущие месяцы, начиная с января 2011 года, Вы можете получить, выбрав интересующий диапазон дат из раскрывающегося списка и нажав кнопку "Ввод!".


*Определитесь, кто Вы:
робот инопланетянин человек

Внимание! Время в таблицах - всемирное. Для получения местного времени необходимо прибавить поправку, которая равна 8 ч.

Смотрите также архив погоды в соседних городах и на ближайших метеорологических станциях:

Погода в Уиндеме (Западная Австралия, Австралия) (68 км)
Погода в Аэропорту Аргайл (Западная Австралия, Австралия) (99 км)
Погода в Порт Китс (Северная территория, Австралия) (192 км)
Погода в Манбуллу Ксиро (Северная территория, Австралия) (242 км)
Погода в Виктория-Ривер (Северная территория, Австралия) (256 км)
Погода в Калумбуру (Западная Австралия, Австралия) (276 км)
Погода в Холс Крик (Западная Австралия, Австралия) (294 км)
Погода в Трускотте (Западная Австралия, Австралия) (314 км)
Погода на Маяке Кейп-Дон (Северная территория, Австралия) (343 км)
Погода на Базе ВВС Delamere Weapons Range (Северная территория, Австралия) (344 км)

Пояснения к столбцам:

Ветер - указаны скорость ветра в м/с - средняя за 10 мин, порывы в срок и между сроками (в фигурных скобках) и направление, откуда дует ветер: С - северный, СВ - северо-восточный, В - восточный, ЮВ - юго-восточный, Ю - южный, ЮЗ - юго-западный, З - западный, СЗ - северо-западный.
Видимость - горизонтальная дальность видимости в метрах или километрах. При видимости от 1 до 10 км при отсутствии осадков обычно наблюдается дымка, при ухудшении видимости до 1 км и менее - туман. В сухую погоду видимость может ухудшаться дымом, пылью или мглою.
Явления - указаны атмосферные явления, наблюдавшиеся в срок или в последний час перед сроком; фигурными скобками обозначены явления, наблюдавшиеся между сроками (за 1-3 часа до срока); квадратными скобками обозначены град или гололедные отложения с указанием их диаметра в мм.
Облачность - указаны через наклонную черту общая и нижняя облачность в баллах и высота нижней границы облаков в метрах; квадратными скобками обозначены формы облаков: Ci - перистые, Cs - перисто-слоистые, Cc - перисто-кучевые, Ac - высококучевые, As - высокослоистые, Sc - слоисто-кучевые, Ns - слоисто-дождевые, Cu - кучевые, Cb - кучево-дождевые. Подробнее классификацию облаков см. в Атласе облаков (PDF).
T - Температура воздуха - температура, измеренная на высоте 2 м над землей.
Td - Температура точки росы - температура, при понижении до которой содержащийся в воздухе водяной пар достигнет насыщения.
f - Относительная влажность воздуха - влажноcть воздуха, измеренная на высоте 2 м над землей.
Te - Эффективная температура - температура, которую ощущает одетый по сезону человек в тени. Характеристика душности погоды. При расчете учитывается влияние влажности воздуха и скорости ветра на теплоощущения человека.
Tes - Эффективная температура на солнце - температура, которую ощущает человек, с поправкой на солнечный нагрев. Характеристика знойности погоды. Зависит от высоты солнца над горизонтом, облачности и скорости ветра. Ночью, в пасмурную погоду, а также при ветре 12 м/с и более поправка равна нулю.
P - Атмосферное давление - приведенное к уровню моря атмосферное давление.
Po - Атмосферное давление - измеренное на уровне метеостанции атмосферное давление.
Tmin - Минимальная температура - минимум температуры воздуха на высоте 2 м над землей.
Tmax - Максимальная температура - максимум температуры воздуха на высоте 2 м над землей.
R - Количество осадков - Количество выпавших осадков за период времени, мм. При наведении курсора мыши на число - период времени, за который выпало указанное количество осадков.
R24 - Количество осадков - Количество выпавших осадков за 24 часа, мм.
S - Снежный покров - Высота снежного покрова, см. При наведении курсора мыши на число - состояние снежного покрова и степень покрытия местности в баллах.